Location: Liscomb Game Sanctuary
(45.1633°N, 62.5575°W)
Time: 19:50:06
(UTC-03:00)

Cosmos 1782 Rocket - Pass Details

Date: 22 February 2018
Orbit: 606 x 633 km, 82.5° (Epoch: 17 June)

Event Time Altitude Azimuth Distance (km) Brightness Sun altitude
Rises 19:48:19 0° 200° (SSW) 2,903 7.2 -21.9°
Reaches altitude 10° 19:50:36 10° 206° (SSW) 1,997 6.4 -22.3°
Maximum altitude 19:54:55 51° 282° (WNW) 791 4.4 -23.0°
Drops below altitude 10° 19:59:14 10° 359° (N) 1,997 6.3 -23.8°
Sets 20:01:31 0° 4° (N) 2,903 7.1 -24.2°
